Красноармейский

Россия / Чукотский автономный округ     69°32′30″N   171°59′30″E
темп.,
°C
ветер,
м/с
пор.,
м/с
влажн.,
%
обл.,
%
осадки,
мм/ч
давл.,
гПа
погр.,
м
8 марта, пн
пн800:00−36в00880 0.0 100019
03:00−33ссв227533 0.0 99919
06:00−30ссв448265 0.0 99675
09:00−28ссв5797100 0.1 995264
12:00−29ссв6992100 0.3 991358
15:00−27с3797100 0.8 989448
18:00−28зюз2299100 1.2 98821
21:00−29зюз2299100 0.3 98938
9 марта, вт
вт900:00−30зюз22100100 0.4 99030
03:00−31зюз22100100 0.1 99149
06:00−31зюз22100100 0.2 99338
09:00−33зюз22100100 0.0 99522
12:00−32зюз2299100 0.1 99753
15:00−31зюз2299100 0.0 99938
18:00−32зюз22100100 0.1 100120
21:00−32зюз22100100 0.0 100420
10 марта, ср
ср1000:00−32юз22100100 0.1 100522
03:00−31юз33100100 0.1 100745
06:00−31ююз34100100 0.2 100864
09:00−31ююз34100100 0.1 1010104
12:00−30ююз4599100 0.2 1010152
15:00−30ююз3496100 0.0 101196
18:00−32юз239598 0.0 101319
21:00−33ююз239995 0.0 101419
11 марта, чт
чт1100:00−33ююз339897 0.1 101526
03:00−35ю229394 0.0 101520
06:00−35ю128581 0.0 101619
09:00−33ю11796 0.0 101619
12:00−30ю12793 0.0 101623
15:00−30ю11770 0.0 101521
18:00−32ю11740 0.0 101619
21:00−32ююв11710 0.0 101619
12 марта, пт
пт1200:00−31ююв11680 0.0 101619
03:00−30ююв11640 0.0 101519
06:00−29ююв11610 0.0 101519
09:00−28ююв11607 0.0 101419
12:00−25ю126713 0.0 101423
15:00−25ю22701 0.0 101221
18:00−28ю11793 0.0 101219
21:00−28ю118927 0.0 101120